Regional Weather Roundup
Issued by NWS

Home | Current Version | Previous Version | Text Only | Print | Product List | Glossary On
Versions: 1 2 3 4 5 6 7 8 9 10 11 12 13 14 15 16 17 18 19 20 21 22 23 24 25 26 27 28 29 30 31 32 33 34 35 36 37 38 39 40 41 42 43 44 45 46 47 48 49 50
000
ASUS43 KTOP 261408
RWRKS

WEATHER ROUNDUP FOR KANSAS
NATIONAL WEATHER SERVICE GOODLAND KS
900 AM CDT SUN APR 26 2015

NOTE:  "FAIR" INDICATES FEW OR NO CLOUDS BELOW 12,000 FEET WITH NO
SIGNIFICANT WEATHER AND/OR OBSTRUCTIONS TO VISIBILITY.

KSZ001>006-013>018-027>032-041>047-261500-
NORTHWEST KANSAS

CITY           SKY/WX    TMP DP  RH WIND       PRES   REMARKS
GOODLAND       CLOUDY    43  43 100 E18       29.89S FOG
HAYS           CLOUDY    46  39  76 E20G25    29.90R
HILL CITY      CLOUDY    47  43  86 E17       29.91R
RUSSELL        CLOUDY    47  46  97 NE15      29.88F
$$

KSZ061>065-074>080-084>089-261500-
SOUTHWEST KANSAS

CITY           SKY/WX    TMP DP  RH WIND       PRES   REMARKS
DODGE CITY     CLOUDY    46  44  93 E17       29.85R FOG
ELKHART          N/A     51  43  74 E16         N/A
GARDEN CITY    CLOUDY    44  44 100 E20       29.84R FOG
GREAT BEND     CLOUDY    46  43  87 E16       29.89S
LIBERAL        CLOUDY    50  45  81 E17G24    29.80S
$$

KSZ066>073-081>083-090>101-261500-
SOUTHEAST KANSAS

CITY           SKY/WX    TMP DP  RH WIND       PRES   REMARKS
CHANUTE        CLOUDY    52  48  86 NE10      29.89R
COFFEYVILLE    CLOUDY    53  50  89 E13       29.87R
HUTCHINSON     CLOUDY    50  45  83 E17       29.88R
MEDICINE LODGE   N/A     50  47  89 E14       29.85R
NEWTON         CLOUDY    48  45  87 E9G16     29.89R
PARSONS        CLOUDY    54  49  83 VRB7      29.89R
WICHITA INTL   CLOUDY    52  47  83 E13G21    29.86R
WICHITA JABRA  CLOUDY    50  48  93 E12       29.86R
WICHITA MCCONL CLOUDY    52  48  87 E15       29.86R
WINFIELD       CLOUDY    51  49  92 NE12G21   29.87R
$$

KSZ007>012-019>026-033>040-048>060-102>105-261500-
NORTHEAST KANSAS

CITY           SKY/WX    TMP DP  RH WIND       PRES   REMARKS
CONCORDIA      CLOUDY    46  44  93 NE12      29.95R FOG
EMPORIA        CLOUDY    48  46  93 NE14      29.90R FOG
LAWRENCE       CLOUDY    49  43  80 E14       29.95R
MANHATTAN      CLOUDY    49  46  90 NE16      29.94R FOG
MARYSVILLE     CLOUDY    46  43  87 E12G17    29.97R
OLATHE IND     CLOUDY    47  44  90 NE13      29.94R FOG
OLATHE EXE     CLOUDY    47  44  90 NE13      29.93S FOG
SALINA         CLOUDY    50  46  86 NE12      29.91R
TOPEKA BILLARD CLOUDY    50  45  83 NE9       29.95R
TOPEKA FORBES  CLOUDY    51  45  79 NE9       29.93R
$$



USA.gov is the U.S. government's official web portal to all federal, state and local government web resources and services.